LFSBLFST

Guest
Details From LFSB - Bale-Mulhouse
To LFST - Entzheim
Flight Number -
Tags decoded
Created
Modified
Stats Distance 92 nm / 170 km
Max Altitude 0 ft / 0 m
Waypoints 3
Social Downloads 0
Likes 0
Share VATSIM

Download

Looking for another format? Having issues loading an existing format? Contact us
Advertisement - Login to hide

Notes

Requested: LFSB MIRGU LFST

Route

LFSB MIRGU LFST

ID Type Via Altitude Latitude Longitude Leg Dist Tot Dist Heading (true) Name
O LFSB APT - 0 ft / 0 m 47.59581˚ 7.52481˚ - 0 nm - Bale-Mulhouse
MIRGU FIX - 0 ft / 0 m 48.01917˚ 6.67889˚ 42 nm 42 nm 307° / 306° -
O LFST APT - 0 ft / 0 m 48.53833˚ 7.62826˚ 49 nm 91 nm 50° / 51° Entzheim

Altitude Profile

Advertisement - Login to hide

LFSB

Details ICAO LFSB (MLH)
Name Bale-Mulhouse
Region France
Timezone Europe/Paris (UTC+2.0)
Stats Elevation 885 ft / 270 m (AMSL)
Location 47.595810° 7.524806°
Runways 2
Magnetic Variation 2.139° E

METAR

LFSB 241830Z 26004KT 9999 FEW063TCU BKN120 22/12 Q1016 NOSIG

Decode

TAF

TAF AMD LFSB 241825Z 2418/2518 26004KT CAVOK TEMPO 2418/2420 FEW060TCU BECMG 2422/2424 VRB03KT PROB30 TEMPO 2502/2505 MIFG BECMG 2511/2514 36006KT

Decode

Departure Runways

ID Width Length Bearing (true) Bearing (mag) Surface Threshold Offset Overrun Length
08 193 ft / 59 m 5,956 ft / 1,816 m 76.91° 74.77° Concrete 0 ft / 0 m 0 ft / 0 m
15 197 ft / 60 m 12,802 ft / 3,902 m 154.86° 152.72° Concrete 0 ft / 0 m 0 ft / 0 m
26 193 ft / 59 m 5,956 ft / 1,816 m 256.93° 254.79° Concrete 722 ft / 220 m 0 ft / 0 m
33 197 ft / 60 m 12,802 ft / 3,902 m 334.88° 332.74° Concrete 3,675 ft / 1,120 m 0 ft / 0 m

LFST

Details ICAO LFST (SXB)
Name Entzheim
Region France
Timezone Europe/Paris (UTC+2.0)
Stats Elevation 504 ft / 154 m (AMSL)
Location 48.538335° 7.628265°
Runways 1
Magnetic Variation 2.160° E

METAR

LFST 241830Z AUTO 02007KT CAVOK 21/15 Q1016 TEMPO 4000 -TSRA FEW040CB

Decode

TAF

TAF LFST 241700Z 2418/2518 32005KT 9999 FEW050 PROB30 TEMPO 2418/2420 4000 -TSRA FEW040CB BECMG 2422/2424 4000 BR PROB40 2502/2508 0600 BCFG BKN001 BECMG 2508/2510 01005KT 9999 NSW FEW020

Decode

Destination Runways

ID Width Length Bearing (true) Bearing (mag) Surface Threshold Offset Overrun Length
05 148 ft / 45 m 7,899 ft / 2,408 m 48.60° 46.44° Asphalt 0 ft / 0 m 860 ft / 262 m
23 148 ft / 45 m 7,899 ft / 2,408 m 228.62° 226.46° Asphalt 0 ft / 0 m 902 ft / 275 m

Approach Navaids

Runway Type Ident Frequency Range Bearing (true) Bearing (mag) Slope Elevation
05 Localiser ENT 108.55 MHz 18 nm / 33 km 48.63° 46.47° - 499 ft / 152 m (AMSL)
05 Glidescope ENT 108.55 MHz 10 nm / 19 km 48.61° 46.45° 3.50° 561 ft / 171 m (AMSL)
05 DME ENT 108.55 MHz 18 nm / 33 km - - - 504 ft / 154 m (AMSL)
23 Localiser STZ 109.55 MHz 18 nm / 33 km 228.59° 226.43° - 515 ft / 157 m (AMSL)
23 Glidescope STZ 109.55 MHz 10 nm / 19 km 228.61° 226.45° 3.00° 542 ft / 165 m (AMSL)
23 DME STZ 109.55 MHz 18 nm / 33 km - - - 504 ft / 154 m (AMSL)

Popular Alternatives